Regional Weather Roundup
Issued by NWS

Home | Current Version | Previous Version | Graphics & Text | Print | Product List | Glossary On
Versions: 1 2 3 4 5 6 7 8 9 10 11 12 13 14 15 16 17 18 19 20 21 22 23 24 25 26 27 28 29 30 31 32 33 34 35 36 37 38 39 40 41 42 43 44 45 46 47 48 49 50
000
ASUS43 KIND 271100
RWRIN

WEATHER ROUNDUP FOR INDIANA
NATIONAL WEATHER SERVICE INDIANAPOLIS IN
700 AM EDT SUN MAY 27 2018

NOTE: "FAIR" INDICATES FEW OR NO CLOUDS BELOW 12,000 FEET WITH NO
SIGNIFICANT WEATHER AND/OR OBSTRUCTIONS TO VISIBILITY.

* - STATION DOES NOT REPORT WEATHER SUCH AS PRECIPITATION OR FOG.

+ - STATION NOT QUALITY CONTROLLED BY THE NATIONAL WEATHER SERVICE.
    USE DATA WITH CAUTION...ESPECIALLY DEWPOINT AND RELATIVE
    HUMIDITY OBSERVATIONS.

INZ001>003-010>013-019-020-271200-
NORTHWEST INDIANA

CITY           SKY/WX    TMP DP  RH WIND       PRES   REMARKS
GARY /AIRPORT/ CLEAR     66  64  94 S3        29.85R
KNOX *+        FAIR      63  61  94 CALM      29.85S
MICHIGAN CITY+ FAIR      63  63 100 CALM      29.85S
MONTICELLO +   FAIR      64  63  95 CALM      29.87R

$$

LMZ046-743>745-271200-
SOUTHERN LAKE MICHIGAN

STATION/POSITION TIME  TEMP    WIND        PRES    WAVE
                       AIR SEA DIR/SP/G            HT
                 (UTC) (F)     (DEG/KT/KT) (MB)    (FT)
BURNS HARBOR     1040   74        CALM     1011.2R
MICHIGAN CITY    1030   74     180/  7/  8   N/A
5NW MICH CITY    1050   68 63  210/  4/  4   N/A     0

$$

INZ004-005-014>016-021>024-271200-
NORTH CENTRAL INDIANA

CITY           SKY/WX    TMP DP  RH WIND       PRES   REMARKS
GOSHEN         FAIR      63  61  93 CALM      29.87R FOG
SOUTH BEND     FAIR      66  61  84 CALM      29.86R
WARSAW +       FAIR      61  61 100 CALM      29.88R FOG

$$

INZ006>009-017-018-025>027-271200-
NORTHEAST INDIANA

CITY           SKY/WX    TMP DP  RH WIND       PRES   REMARKS
ANGOLA *+      FAIR      63  63 100 CALM      29.87R FOG
AUBURN +       FAIR      63  63 100 CALM      29.88R FOG
FORT WAYNE     FAIR      66  64  93 CALM      29.88R
KENDALLVILLE + FAIR      61  61 100 CALM      29.89R FOG

$$

INZ028-029-035-036-043>045-051>053-271200-
WEST CENTRAL INDIANA

CITY           SKY/WX    TMP DP  RH WIND       PRES   REMARKS
CRAWFORDSVL +  FAIR      64  64 100 S3        29.88R
GREENCASTLE +  FAIR      64  64 100 CALM      29.89R
LAFAYETTE      FAIR      64  64 100 CALM      29.86R
TERRE HAUTE    FAIR      70  67  90 S3        29.87R

$$

INZ030>032-037>040-046>048-054>057-064-065-271200-
CENTRAL INDIANA

CITY           SKY/WX    TMP DP  RH WIND       PRES   REMARKS
ANDERSON       FAIR      67  64  88 CALM      29.89R
COLUMBUS       CLEAR     64  63  94 SE3       29.89
FRANKFORT +    FAIR      69  66  91 CALM      29.90R
GREENWOOD *+   FAIR      67  65  94 CALM      29.89R
INDIANAPOLIS   MOCLDY    69  66  90 SW3       29.88R
-EAGLE CREEK   FAIR      70  66  87 CALM      29.88R
KOKOMO +       FAIR      66  64  93 S3        29.89R
MT COMFORT *+  FAIR      66  66 100 S3        29.89R
SHELBYVILLE    FAIR      68  63  84 CALM      29.89R

$$

INZ033-034-041-042-049-050-058-059-271200-
EAST CENTRAL INDIANA

CITY           SKY/WX    TMP DP  RH WIND       PRES   REMARKS
MUNCIE         FAIR      72  64  76 SW6       29.89R
RICHMOND +     FAIR      63  63 100 CALM      29.92R

$$

INZ060-061-067>069-081>083-085>088-271200-
SOUTHWEST INDIANA

CITY           SKY/WX    TMP DP  RH WIND       PRES   REMARKS
EVANSVILLE     FAIR      71  70  96 CALM      29.89R
HUNTINGBURG +  FAIR      70  69  97 E3        29.91R FOG

$$

INZ062-063-066-070>080-084-089>092-271200-
SOUTH CENTRAL AND SOUTHEAST INDIANA

CITY           SKY/WX    TMP DP  RH WIND       PRES   REMARKS
BLOOMINGTON    FAIR      70  68  93 SE6       29.89R
FRENCH LICK *+ MOCLDY    70 N/A N/A CALM      29.91R
SEYMOUR +      FAIR      68  66  94 CALM      29.90R

$$




USA.gov is the U.S. government's official web portal to all federal, state and local government web resources and services.